Weather History for Cincinnati, OH

Change the Weather History Date:

Thursday, February 6, 2014

  Actual Average Record
Temperature  
Mean Temperature 20 °F -  
Max Temperature 24 °F 38 °F 66 °F (2008)
Min Temperature 12 °F 22 °F -4 °F (1977)
Degree Days  
Heating Degree Days 46    
Moisture  
Dew Point 14 °F    
Average Humidity 72    
Maximum Humidity 81    
Minimum Humidity 62    
Precipitation  
Precipitation 0.00 in - - ()
Sea Level Pressure  
Sea Level Pressure 30.44 in    
Wind  
Wind Speed 7 mph (WNW)    
Max Wind Speed 12 mph    
Max Gust Speed -    
Visibility 8 miles    
Events Snow    
Averages and records for this station are not official NWS values.
T = Trace of Precipitation, MM = Missing Value Source: NWS Daily Summary

Daily Weather History Graph

Daily Weather History Graph

Search for Another Location

Airport:

Trip Planner

Search our weather history database for the weather conditions in past years. The results will help you decide how hot, cold, wet, or windy it might be!

Date:

Astronomy

Feb. 06, 2014 Rise Set
Actual Time 7:39 AM EST 6:04 PM EST
Civil Twilight 7:11 AM EST 6:32 PM EST
Nautical Twilight 6:39 AM EST 7:04 PM EST
Astronomical Twilight 6:08 AM EST 7:35 PM EST
Moon 11:36 AM EST (2/6) 12:54 AM EST (2/6)
Length of Visible Light 11h 20m
Length of Day
10h 25m
Waxing Crescent, 49% of the Moon is Illuminated
Feb 6
Waxing Crescent
Feb 6
First Quarter
Feb 14
Full
Feb 22
Last Quarter
Mar 1
New

Hourly Weather History & Observations

Time (EST) Temp. Windchill Dew Point Humidity Pressure Visibility Wind Dir Wind Speed Gust Speed Precip Events Conditions
12:53 AM 24.1 °F 16.0 °F 18.0 °F 77% 30.42 in 10.0 mi NNW 6.9 mph - N/A   Overcast
1:29 AM 24.1 °F 16.0 °F 19.0 °F 81% 30.40 in 4.0 mi North 6.9 mph - 0.00 in Snow Light Snow
1:53 AM 24.1 °F 17.0 °F 19.0 °F 81% 30.42 in 3.0 mi NNW 5.8 mph - 0.00 in Snow Light Snow
2:01 AM 24.1 °F 16.0 °F 19.0 °F 81% 30.40 in 4.0 mi NNW 6.9 mph - 0.00 in Snow Light Snow
2:53 AM 24.1 °F 17.0 °F 19.0 °F 81% 30.42 in 4.0 mi NNW 5.8 mph - 0.00 in Snow Light Snow
3:53 AM 21.0 °F 9.9 °F 15.1 °F 78% 30.42 in 8.0 mi NW 10.4 mph - 0.00 in   Overcast
4:53 AM 19.9 °F 14.9 °F 12.9 °F 74% 30.44 in 10.0 mi Variable 3.5 mph - 0.00 in   Overcast
5:05 AM 19.9 °F 12.1 °F 12.0 °F 71% 30.43 in 10.0 mi NW 5.8 mph - N/A   Overcast
5:53 AM 19.9 °F 12.1 °F 10.9 °F 68% 30.45 in 10.0 mi NW 5.8 mph - N/A   Overcast
6:53 AM 19.0 °F 8.2 °F 10.0 °F 68% 30.46 in 10.0 mi WNW 9.2 mph - N/A   Partly Cloudy
7:53 AM 17.1 °F 11.7 °F 10.0 °F 74% 30.46 in 10.0 mi NW 3.5 mph - N/A   Clear
8:53 AM 18.0 °F 12.7 °F 10.9 °F 74% 30.49 in 10.0 mi NW 3.5 mph - N/A   Clear
9:53 AM 19.9 °F 12.1 °F 12.9 °F 74% 30.50 in 10.0 mi WNW 5.8 mph - N/A   Clear
10:53 AM 21.0 °F 12.4 °F 12.9 °F 71% 30.50 in 10.0 mi WSW 6.9 mph - N/A   Mostly Cloudy
11:12 AM 21.9 °F 13.4 °F 12.0 °F 66% 30.48 in 10.0 mi West 6.9 mph - N/A   Overcast
11:53 AM 21.9 °F 17.2 °F 12.0 °F 66% 30.51 in 10.0 mi WSW 3.5 mph - N/A   Overcast
12:53 PM 23.0 °F 13.9 °F 12.9 °F 65% 30.48 in 10.0 mi WSW 8.1 mph - N/A   Overcast
1:32 PM 23.0 °F 13.9 °F 14.0 °F 68% 30.44 in 10.0 mi SSW 8.1 mph - N/A   Overcast
1:53 PM 24.1 °F 15.2 °F 12.9 °F 62% 30.44 in 10.0 mi SW 8.1 mph - N/A   Overcast
2:06 PM 24.1 °F 14.4 °F 14.0 °F 65% 30.42 in 10.0 mi WSW 9.2 mph - N/A   Overcast
2:17 PM 24.1 °F 15.2 °F 14.0 °F 65% 30.41 in 10.0 mi WSW 8.1 mph - N/A   Overcast
2:53 PM 24.1 °F 14.4 °F 14.0 °F 65% 30.43 in 10.0 mi WSW 9.2 mph - N/A   Overcast
3:50 PM 24.8 °F 16.9 °F 17.6 °F 74% 30.41 in 1.8 mi West 6.9 mph - 0.00 in Snow Light Snow
3:53 PM 24.1 °F 16.0 °F 18.0 °F 77% 30.43 in 3.0 mi West 6.9 mph - 0.00 in Snow Light Snow
4:00 PM 24.1 °F 16.0 °F 18.0 °F 77% 30.41 in 3.0 mi West 6.9 mph - 0.00 in Snow Light Snow
4:24 PM 24.1 °F 13.7 °F 16.0 °F 71% 30.41 in 3.0 mi West 10.4 mph - 0.00 in Snow Light Snow
4:36 PM 23.0 °F 13.1 °F 17.1 °F 78% 30.41 in 3.0 mi WNW 9.2 mph - 0.00 in Snow Light Snow
4:48 PM 23.0 °F 12.4 °F 15.8 °F 74% 30.41 in 7.0 mi WNW 10.4 mph - 0.00 in   Overcast
4:53 PM 23.0 °F 13.9 °F 16.0 °F 74% 30.44 in 8.0 mi WNW 8.1 mph - 0.00 in   Overcast
5:53 PM 23.0 °F 14.7 °F 14.0 °F 68% 30.42 in 9.0 mi West 6.9 mph - N/A   Overcast
5:55 PM 23.0 °F 15.8 °F 14.0 °F 68% 30.40 in 9.0 mi West 5.8 mph - N/A   Overcast
6:53 PM 21.0 °F 11.4 °F 14.0 °F 74% 30.44 in 10.0 mi NNW 8.1 mph - N/A   Overcast
7:53 PM 21.0 °F 12.4 °F 12.0 °F 68% 30.45 in 10.0 mi West 6.9 mph - N/A   Overcast
8:53 PM 19.9 °F 8.6 °F 12.0 °F 71% 30.46 in 10.0 mi WNW 10.4 mph - N/A   Overcast
9:53 PM 19.0 °F 6.8 °F 10.9 °F 71% 30.46 in 10.0 mi NW 11.5 mph - N/A   Overcast
10:53 PM 15.1 °F 5.2 °F 6.1 °F 68% 30.47 in 10.0 mi NNW 6.9 mph - N/A   Overcast
11:53 PM 12.9 °F 2.6 °F 3.9 °F 67% 30.47 in 10.0 mi North 6.9 mph - N/A   Overcast